This is the latest recevied weather packets stored in our database for station/object K3HW. If no packets are shown the sender has not sent any weather packets the latest 10 day(s).
| Time | Temp. | Humidity | Pressure | Rain* | Wind** | Luminosity | Snow |
|---|---|---|---|---|---|---|---|
| 1777464622 | 12.22° C | 66% | 1018.9 hPa | 0 mm | - | 30 W/m² | - |
| 1777464319 | 12.22° C | 65% | 1018.7 hPa | 0 mm | - | 34 W/m² | - |
| 1777464015 | 12.22° C | 65% | 1018.8 hPa | 0 mm | - | 31 W/m² | - |
| 1777463709 | 12.22° C | 66% | 1018.8 hPa | 0 mm | - | 35 W/m² | - |
| 1777463404 | 11.67° C | 67% | 1018.9 hPa | 0 mm | - | 36 W/m² | - |
| 1777463101 | 11.67° C | 67% | 1019 hPa | 0 mm | - | 25 W/m² | - |
| 1777462796 | 11.67° C | 67% | 1019.5 hPa | 0 mm | - | 19 W/m² | - |
| 1777462491 | 11.67° C | 66% | 1019.4 hPa | 0 mm | - | 18 W/m² | - |
| 1777462189 | 11.67° C | 65% | 1019.2 hPa | 0 mm | - | 18 W/m² | - |
| 1777461885 | 11.67° C | 66% | 1019.5 hPa | 0 mm | - | 16 W/m² | - |
| 1777461582 | 11.67° C | 66% | 1019.6 hPa | 0 mm | - | 17 W/m² | - |
| 1777461277 | 11.67° C | 66% | 1019.5 hPa | 0 mm | - | 19 W/m² | - |
| 1777460973 | 11.67° C | 67% | 1019.3 hPa | 0 mm | - | 22 W/m² | - |
| 1777460669 | 11.67° C | 66% | 1019.2 hPa | 0 mm | - | 18 W/m² | - |
| 1777460365 | 11.67° C | 66% | 1018.9 hPa | 0 mm | - | 15 W/m² | - |
| 1777460061 | 11.67° C | 66% | 1018.8 hPa | 0 mm | - | 12 W/m² | - |
| 1777459758 | 11.67° C | 66% | 1019.1 hPa | 0 mm | - | 9 W/m² | - |
| 1777459455 | 11.67° C | 65% | 1018.8 hPa | 0 mm | - | 8 W/m² | - |
| 1777459153 | 11.11° C | 66% | 1018.9 hPa | 0 mm | - | 7 W/m² | - |
| 1777458850 | 11.11° C | 67% | 1019.3 hPa | 0 mm | - | 5 W/m² | - |
| 1777458546 | 11.11° C | 66% | 1018.9 hPa | 0 mm | - | 4 W/m² | - |
| 1777458243 | 11.67° C | 65% | 1018.8 hPa | 0 mm | - | 3 W/m² | - |
| 1777457938 | 11.11° C | 65% | 1018.9 hPa | 0 mm | - | 2 W/m² | - |
| 1777457635 | 11.11° C | 65% | 1019.1 hPa | 0 mm | - | 1 W/m² | - |
| 1777457335 | 11.67° C | 66% | 1018.9 hPa | 0 mm | - | 1 W/m² | - |
* Rain latest hour (hover to see other rain measurements)
** Current wind speed in m/s (hover to see current wind gust speed)